Location: Newark
(23.5328°S, 46.7919°W)
Time: 22:31:29
(UTC+00:00)

N. Korean satellite - Pass Details

Date: 08 March 2021
Orbit: 453 x 499 km, 97.2° (Epoch: 12 April)

Event Time Altitude Azimuth Distance (km) Brightness Sun altitude
Rises 08:10:03 0° 1° (N) 2,572 10.1 -13.5°
Reaches altitude 10° 08:12:09 10° 356° (N) 1,699 9.2 -13.0°
Maximum altitude 08:15:43 50° 280° (W) 650 6.8 -12.2°
Drops below altitude 10° 08:19:20 10° 203° (SSW) 1,723 9.2 -11.4°
Sets 08:21:29 0° 198° (SSW) 2,612 10.2 -10.9°
